CW3508 Weather Reports


Display with metric or nautical units.
time (UTC)temp
F
wind
direction
speed
MPH
gust
MPH
rain 1hr
in
rain 24hr
in
rain mn
in
humidity
%
barometer
mb
20260905003549 89 256 0.0 0.0 0.00 0.00 0.00 68 1010.3
20260905003015 89 256 0.0 0.0 0.00 0.00 0.00 67 1010.3
20260905002557 89 256 0.0 0.0 0.00 0.00 0.00 67 1010.3
20260905002043 89 256 0.0 0.0 0.00 0.00 0.00 67 1010.3
20260905001547 90 256 0.0 0.0 0.00 0.00 0.00 67 1010.3
20260905001043 90 256 0.0 0.0 0.00 0.00 0.00 67 1010.4
20260905000523 90 256 0.0 0.0 0.00 0.00 0.00 66 1010.4
20260905000022 90 256 0.0 0.0 0.00 0.00 0.00 66 1010.4
20260904235023 91 256 0.0 0.0 0.00 0.00 0.00 66 1010.4
20260904234522 91 256 0.0 0.0 0.00 0.00 0.00 65 1010.4
20260904234023 91 256 0.0 0.0 0.00 0.00 0.00 65 1010.3
20260904233516 91 256 0.0 0.0 0.00 0.00 0.00 65 1010.3
20260904233028 91 256 0.0 0.0 0.00 0.00 0.00 64 1010.3
20260904232534 91 256 0.0 0.0 0.00 0.00 0.00 64 1010.2
20260904232016 92 256 0.0 0.0 0.00 0.00 0.00 63 1010.2
20260904231517 92 256 0.0 0.0 0.00 0.00 0.00 63 1010.2
20260904231018 92 323 0.0 1.0 0.00 0.00 0.00 63 1009.8
20260904230531 92 323 0.0 1.0 0.00 0.00 0.00 63 1009.8
20260904230018 92 323 0.0 0.0 0.00 0.00 0.00 61 1009.8
20260904225603 93 244 0.0 0.0 0.00 0.00 0.00 62 1009.8
20260904225041 93 244 0.0 0.0 0.00 0.00 0.00 61 1009.8
20260904224552 93 244 0.0 0.0 0.00 0.00 0.00 61 1009.8
20260904224033 93 310 0.0 0.0 0.00 0.00 0.00 60 1009.7
20260904223516 93 310 0.0 0.0 0.00 0.00 0.00 60 1009.7
20260904222518 93 194 0.0 1.0 0.00 0.00 0.00 61 1009.7
20260904222017 93 162 0.0 1.0 0.00 0.00 0.00 59 1009.7
20260904221558 93 300 0.0 1.0 0.00 0.00 0.00 59 1009.7
20260904221023 93 306 0.0 0.0 0.00 0.00 0.00 61 1009.6
20260904220522 93 306 0.0 0.0 0.00 0.00 0.00 60 1009.6
20260904220030 94 306 0.0 0.0 0.00 0.00 0.00 59 1009.6
20260904215517 94 306 0.0 0.0 0.00 0.00 0.00 60 1009.6
20260904215016 94 306 0.0 0.0 0.00 0.00 0.00 59 1009.6
20260904214512 94 306 0.0 1.0 0.00 0.00 0.00 60 1009.6
20260904214012 94 306 0.0 3.0 0.00 0.00 0.00 58 1009.7
20260904213529 94 306 0.0 4.0 0.00 0.00 0.00 59 1009.7
20260904213032 94 182 0.0 4.0 0.00 0.00 0.00 58 1009.7
20260904212520 94 246 0.0 0.0 0.00 0.00 0.00 59 1009.7
20260904212055 95 294 0.0 1.0 0.00 0.00 0.00 59 1009.7
20260904211535 95 294 0.0 1.0 0.00 0.00 0.00 57 1009.7
20260904211035 95 274 0.0 1.0 0.00 0.00 0.00 57 1009.7
20260904210011 95 278 0.0 4.0 0.00 0.00 0.00 58 1009.7
20260904205511 95 221 0.0 3.0 0.00 0.00 0.00 57 1009.8
20260904205012 95 221 0.0 3.0 0.00 0.00 0.00 57 1009.8
20260904204537 95 196 1.0 3.0 0.00 0.00 0.00 55 1009.8
20260904204020 96 255 0.0 0.0 0.00 0.00 0.00 57 1010.0
20260904203523 96 255 0.0 0.0 0.00 0.00 0.00 58 1010.0
20260904203025 96 254 0.0 1.0 0.00 0.00 0.00 58 1010.0
20260904202516 96 254 0.0 1.0 0.00 0.00 0.00 58 1010.2
20260904202021 96 284 0.0 4.0 0.00 0.00 0.00 58 1010.2
20260904201527 96 284 1.0 4.0 0.00 0.00 0.00 57 1010.2
20260904201020 96 259 0.0 1.0 0.00 0.00 0.00 57 1010.5
20260904200532 96 258 0.0 1.0 0.00 0.00 0.00 56 1010.5
20260904200035 96 223 0.0 2.0 0.00 0.00 0.00 58 1010.5
20260904194019 96 318 0.0 0.0 0.00 0.00 0.00 58 1010.9
20260904193516 96 290 0.0 2.0 0.00 0.00 0.00 58 1010.9
20260904193014 96 185 0.0 2.0 0.00 0.00 0.00 59 1010.9
20260904192530 96 274 0.0 0.0 0.00 0.00 0.00 58 1011.3
20260904192021 96 305 0.0 0.0 0.00 0.00 0.00 59 1011.3
20260904191556 96 304 0.0 0.0 0.00 0.00 0.00 58 1011.3
20260904191040 96 298 0.0 0.0 0.00 0.00 0.00 60 1011.5
20260904190535 96 289 0.0 0.0 0.00 0.00 0.00 59 1011.5
20260904190022 96 294 0.0 1.0 0.00 0.00 0.00 61 1011.5
20260904185525 96 61 0.0 1.0 0.00 0.00 0.00 59 1011.8
20260904185038 96 282 0.0 3.0 0.00 0.00 0.00 61 1011.8
20260904184530 96 288 0.0 2.0 0.00 0.00 0.00 58 1011.8
20260904184038 96 342 0.0 2.0 0.00 0.00 0.00 62 1011.9
20260904183540 96 207 0.0 2.0 0.00 0.00 0.00 60 1011.9
20260904183025 96 310 0.0 2.0 0.00 0.00 0.00 59 1011.9
20260904182519 96 335 0.0 2.0 0.00 0.00 0.00 60 1012.1
20260904182018 96 335 0.0 1.0 0.00 0.00 0.00 62 1012.1
20260904181514 96 335 0.0 1.0 0.00 0.00 0.00 62 1012.1
20260904181034 95 337 0.0 2.0 0.00 0.00 0.00 61 1012.4
20260904180519 95 337 0.0 2.0 0.00 0.00 0.00 61 1012.4
20260904180032 96 355 0.0 2.0 0.00 0.00 0.00 61 1012.4
20260904175527 96 296 0.0 2.0 0.00 0.00 0.00 59 1012.5
20260904175034 96 283 0.0 1.0 0.00 0.00 0.00 60 1012.5
20260904174535 96 286 0.0 0.0 0.00 0.00 0.00 59 1012.5
20260904174024 96 286 0.0 0.0 0.00 0.00 0.00 61 1012.8
20260904173529 96 304 0.0 0.0 0.00 0.00 0.00 61 1012.8
20260904173031 96 304 0.0 0.0 0.00 0.00 0.00 59 1012.8
20260904172036 96 304 0.0 1.0 0.00 0.00 0.00 62 1012.9
20260904171544 96 219 0.0 1.0 0.00 0.00 0.00 61 1012.9
20260904171041 96 219 0.0 3.0 0.00 0.00 0.00 62 1013.1
20260904161544 93 170 0.0 4.0 0.00 0.00 0.00 65 1013.4
20260904134033 78 103 0.0 0.0 0.00 0.00 0.00 94 1013.2
20260904133519 78 103 0.0 0.0 0.00 0.00 0.00 94 1013.2
20260904133024 78 103 0.0 0.0 0.00 0.00 0.00 95 1013.2
20260904132544 78 103 0.0 0.0 0.00 0.00 0.00 95 1013.0
20260904132047 78 103 0.0 0.0 0.00 0.00 0.00 95 1013.0
20260904131515 78 103 0.0 0.0 0.00 0.00 0.00 95 1013.0
20260904131017 77 103 0.0 0.0 0.00 0.00 0.00 95 1013.0
20260904130523 77 103 0.0 0.0 0.00 0.00 0.00 95 1013.0
20260904130041 77 103 0.0 0.0 0.00 0.00 0.00 94 1013.0
20260904125524 77 103 0.0 0.0 0.00 0.00 0.00 94 1012.9
20260904125056 77 103 0.0 0.0 0.00 0.00 0.00 94 1012.9
20260904124023 77 103 0.0 0.0 0.00 0.00 0.00 95 1012.8
20260904123523 77 103 0.0 0.0 0.00 0.00 0.00 95 1012.8
20260904123025 77 103 0.0 0.0 0.00 0.00 0.00 95 1012.8
20260904122518 76 103 0.0 0.0 0.00 0.00 0.00 95 1012.7
20260904122028 76 103 0.0 0.0 0.00 0.00 0.00 94 1012.7
20260904121530 76 103 0.0 0.0 0.00 0.00 0.00 94 1012.7
20260904121027 76 103 0.0 0.0 0.00 0.00 0.00 94 1012.5
20260904120528 76 103 0.0 0.0 0.00 0.00 0.00 94 1012.5
20260904120040 76 103 0.0 0.0 0.00 0.00 0.00 94 1012.5
20260904115528 76 103 0.0 0.0 0.00 0.00 0.00 94 1012.4
20260904115023 76 103 0.0 0.0 0.00 0.00 0.00 94 1012.4
20260904114535 76 103 0.0 0.0 0.00 0.00 0.00 94 1012.4
20260904114040 76 103 0.0 0.0 0.00 0.00 0.00 94 1012.3
20260904113525 76 103 0.0 0.0 0.00 0.00 0.00 94 1012.3
20260904113028 76 103 0.0 0.0 0.00 0.00 0.00 94 1012.3
20260904112530 76 103 0.0 0.0 0.00 0.00 0.00 94 1012.1
20260904112024 77 103 0.0 0.0 0.00 0.00 0.00 94 1012.1
20260904111534 76 103 0.0 0.0 0.00 0.00 0.00 94 1012.1
20260904111033 76 103 0.0 0.0 0.00 0.00 0.00 94 1012.0
20260904110540 77 103 0.0 0.0 0.00 0.00 0.00 94 1012.0
20260904110027 77 103 0.0 0.0 0.00 0.00 0.00 94 1012.0
20260904105525 77 103 0.0 0.0 0.00 0.00 0.00 93 1011.9
20260904105101 77 103 0.0 0.0 0.00 0.00 0.00 93 1011.9
20260904104524 77 103 0.0 0.0 0.00 0.00 0.00 93 1011.9
20260904104014 77 103 0.0 0.0 0.00 0.00 0.00 93 1012.0
20260904103520 77 103 0.0 0.0 0.00 0.00 0.00 93 1012.0
20260904103036 77 103 0.0 0.0 0.00 0.00 0.00 93 1012.0
20260904102528 77 103 0.0 0.0 0.00 0.00 0.00 93 1011.9
20260904102014 77 103 0.0 0.0 0.00 0.00 0.00 93 1011.9
20260904101525 77 103 0.0 0.0 0.00 0.00 0.00 93 1011.9
20260904101105 77 103 0.0 0.0 0.00 0.00 0.00 93 1011.8
20260904100544 77 103 0.0 0.0 0.00 0.00 0.00 93 1011.8
20260904100022 77 103 0.0 0.0 0.00 0.00 0.00 93 1011.8
20260904095517 77 103 0.0 0.0 0.00 0.00 0.00 93 1011.7
20260904095029 77 103 0.0 0.0 0.00 0.00 0.00 93 1011.7
20260904094530 77 103 0.0 0.0 0.00 0.00 0.00 93 1011.7
20260904094021 77 103 0.0 0.0 0.00 0.00 0.00 93 1011.7
20260904093540 77 103 0.0 0.0 0.00 0.00 0.00 93 1011.7
20260904093023 77 103 0.0 0.0 0.00 0.00 0.00 92 1011.7
20260904092529 77 103 0.0 0.0 0.00 0.00 0.00 92 1011.8
20260904092015 78 103 0.0 0.0 0.00 0.00 0.00 92 1011.8
20260904091526 78 103 0.0 0.0 0.00 0.00 0.00 92 1011.8
20260904091104 78 103 0.0 0.0 0.00 0.00 0.00 92 1011.7
20260904090526 78 103 0.0 0.0 0.00 0.00 0.00 92 1011.7
20260904090015 78 103 0.0 0.0 0.00 0.00 0.00 92 1011.7
20260904085553 78 103 0.0 0.0 0.00 0.00 0.00 92 1011.5
20260904085039 78 103 0.0 0.0 0.00 0.00 0.00 92 1011.5
20260904084534 78 103 0.0 0.0 0.00 0.00 0.00 92 1011.5
20260904084034 78 103 0.0 0.0 0.00 0.00 0.00 92 1011.7
20260904083533 78 103 0.0 0.0 0.00 0.00 0.00 92 1011.7
20260904083018 78 103 0.0 0.0 0.00 0.00 0.00 91 1011.7
20260904082522 78 103 0.0 0.0 0.00 0.00 0.00 91 1011.7
20260904082027 78 103 0.0 0.0 0.00 0.00 0.00 91 1011.7
20260904081513 79 103 0.0 0.0 0.00 0.00 0.00 91 1011.7
20260904081029 79 103 0.0 0.0 0.00 0.00 0.00 91 1011.8
20260904080520 79 103 0.0 0.0 0.00 0.00 0.00 91 1011.8
20260904080023 79 103 0.0 0.0 0.00 0.00 0.00 91 1011.8
20260904075544 79 103 0.0 0.0 0.00 0.00 0.00 91 1011.8
20260904075043 79 103 0.0 0.0 0.00 0.00 0.00 91 1011.8
20260904074545 79 103 0.0 0.0 0.00 0.00 0.00 91 1011.8
20260904074029 79 103 0.0 0.0 0.00 0.00 0.00 91 1011.8
20260904073520 79 103 0.0 0.0 0.00 0.00 0.00 91 1011.8
20260904073025 79 103 0.0 0.0 0.00 0.00 0.00 90 1011.8
20260904072529 79 103 0.0 0.0 0.00 0.00 0.00 90 1011.8
20260904072023 79 103 0.0 0.0 0.00 0.00 0.00 90 1011.8
20260904071525 79 103 0.0 0.0 0.00 0.00 0.00 90 1011.8
20260904071100 79 103 0.0 0.0 0.00 0.00 0.00 90 1011.6
20260904070523 79 103 0.0 0.0 0.00 0.00 0.00 90 1011.6
20260904070020 79 103 0.0 0.0 0.00 0.00 0.00 90 1011.6
20260904065518 79 103 0.0 0.0 0.00 0.00 0.00 90 1011.7
20260904065018 79 103 0.0 0.0 0.00 0.00 0.00 90 1011.7
20260904064520 79 103 0.0 0.0 0.00 0.00 0.00 90 1011.7
20260904064051 79 103 0.0 0.0 0.00 0.00 0.00 90 1011.8
20260904063533 79 103 0.0 0.0 0.00 0.00 0.00 90 1011.8
20260904063020 79 103 0.0 0.0 0.00 0.00 0.00 89 1011.8
20260904062557 79 103 0.0 0.0 0.00 0.00 0.00 89 1011.8
20260904062040 79 103 0.0 0.0 0.00 0.00 0.00 89 1011.8
20260904061529 79 103 0.0 0.0 0.00 0.00 0.00 89 1011.8
20260904061016 80 103 0.0 0.0 0.00 0.00 0.00 89 1011.8
20260904060527 80 103 0.0 0.0 0.00 0.00 0.00 89 1011.8
20260904055527 80 103 0.0 0.0 0.00 0.00 0.00 88 1011.8
20260904055028 80 103 0.0 0.0 0.00 0.00 0.00 88 1011.8
20260904054530 80 103 0.0 0.0 0.00 0.00 0.00 88 1011.8
20260904054015 80 103 0.0 0.0 0.00 0.00 0.00 88 1011.8
20260904053516 80 103 0.0 0.0 0.00 0.00 0.00 88 1011.8
20260904053020 80 103 0.0 0.0 0.00 0.00 0.00 88 1011.8
20260904052529 80 103 0.0 0.0 0.00 0.00 0.00 88 1011.8
20260904052017 80 103 0.0 0.0 0.00 0.00 0.00 88 1011.8
20260904051518 80 103 0.0 0.0 0.00 0.00 0.00 87 1011.8
20260904051026 80 103 0.0 0.0 0.00 0.00 0.00 87 1011.8
20260904050517 80 103 0.0 0.0 0.00 0.00 0.00 87 1011.8
20260904050054 80 103 0.0 0.0 0.00 0.00 0.00 87 1011.8
20260904045536 80 103 0.0 0.0 0.00 0.00 0.00 87 1011.9
20260904045026 80 103 0.0 0.0 0.00 0.00 0.00 86 1011.9
20260904044542 81 103 0.0 0.0 0.00 0.00 0.00 86 1011.9
20260904044032 81 103 0.0 0.0 0.00 0.00 0.00 86 1011.8
20260904043523 81 103 0.0 0.0 0.00 0.00 0.00 86 1011.8
20260904043045 81 103 0.0 0.0 0.00 0.00 0.00 86 1011.8
20260904042531 81 103 0.0 0.0 0.00 0.00 0.00 85 1011.9